Home > Time Zones > World Clock > Weather > Spain > Ceuta > Past weeks

Flag for Spain Weather past 2 weeks in Ceuta, Ceuta, Spain

Now
66 °F

Sunny.


Feels Like: 66 °F
Forecast: 61 / 64 °F
Wind: 7 mph from East

Location: Gibraltar Airport

Current Time: Apr 1, 2015 at 1:00:44 PM

Latest Report: Apr 1, 2015 at 11:50 AM


Visibility: 10 mi

Pressure: 30.24 "Hg

Humidity: 68%

Dew point: 55 °F

Location of CeutaLocation

Historic Weather in Ceuta — Graph

°F

Ceuta temperature yesterday

Maximum temperature yesterday: 77 °F (at 3:50 PM)
Minimum temperature yesterday: 63 °F (at 8:50 AM)
Average temperature yesterday: 68 °F

Past Weeks' High & Low Weather Summary

 TemperatureHumidityPressure
High77 °F (Mar 29, 2:50 PM)100% (Mar 21, 5:50 AM)30.33 "Hg (Mar 21, 5:50 AM)
Low50 °F (Mar 18, 12:50 AM)24% (Mar 25, 4:50 PM)29.62 "Hg (Mar 24, 12:50 AM)
Average59 °F74%29.98 "Hg
* Reported Mar 17 10:50 AM — Apr 1 11:50 AM, Ceuta, Weather by CustomWeather, © 2015

Note: Actual official high and low records may vary slightly from our data, if they occured in-between our weather recording intervals... More about our weather records

Advertising

Ceuta weather history for previous 24 hours

 ConditionsComfort  
Time TempWeatherWind HumidityBarometerVisibility
11:50 AM
Wed, Apr 1
66 °FSunny.7 mph68%30.24 "Hg10 mi
10:50 AM66 °FSunny.2 mph78%30.21 "Hg10 mi
9:50 AM63 °FSunny.1 mph88%30.21 "Hg10 mi
8:50 AM64 °FClear.2 mph73%30.18 "HgN/A
7:50 AM61 °FClear.5 mph94%30.18 "Hg10 mi
6:50 AM63 °FPassing clouds.6 mph88%30.15 "HgN/A
5:50 AM63 °FClear.10 mph88%30.15 "HgN/A
4:50 AM64 °FClear.8 mph83%30.18 "Hg6 mi
3:50 AM63 °FClear.7 mph88%30.18 "HgN/A
2:50 AM63 °FClear.5 mph88%30.21 "HgN/A
1:50 AM64 °FClear.6 mph83%30.21 "HgN/A
12:50 AM64 °FClear.6 mph83%30.21 "HgN/A
11:50 PM
Tue, Mar 31
64 °FClear.5 mph78%30.21 "HgN/A
10:50 PM68 °FClear.5 mph60%30.21 "Hg10 mi
9:50 PM66 °FClear.2 mph73%30.21 "Hg10 mi
8:50 PM68 °FSunny.1 mph69%30.18 "Hg10 mi
7:50 PM68 °FSunny.7 mph69%30.18 "HgN/A
6:50 PM75 °FSunny.2 mph47%30.18 "Hg10 mi
5:50 PM77 °FSunny.7 mph42%30.21 "Hg10 mi
3:50 PM77 °FSunny.8 mph39%30.24 "Hg10 mi
2:50 PM75 °FSunny.8 mph44%30.24 "Hg10 mi
1:50 PM73 °FSunny.5 mph47%30.27 "Hg10 mi
Weather by CustomWeather, © 2015

See weather overviewHow to use our weather pages